Location: Waco, TX
(31.5480°N, 97.1670°W)
Time: 00:38:17
(UTC-06:00)

ISS - Pass Details

Date: 16 December 2017
Orbit: 403 x 407 km, 51.6° (Epoch: 12 December)

Event Time Altitude Azimuth Distance (km) Brightness Sun altitude
Rises 19:25:35 0° 298° (WNW) 2,320 0.7 -24.4°
Reaches altitude 10° 19:28:04 10° 279° (W) 1,456 -0.1 -24.9°
Maximum altitude 19:30:25 19° 233° (SW) 1,047 -1.1 -25.4°
Enters shadow 19:31:45 15° 202° (SSW) 1,191 -1.1 -25.7°
Drops below altitude 10° 19:32:46 10° 186° (S) 1,448 - -25.9°
Sets 19:35:14 0° 167° (SSE) 2,302 - -26.4°
